Lid_Strength_Index
2 1 2 2 2 2 2 2 2 3 3 4 4 4 5 5 5 5 5 4 4 4 4 4 4 3 5 7 8 1 -3 -3 3 8 8 5 7 8 9 7 7 9 8 7 6 7 6
2 2 2 2 2 2 2 2 3 3 3 4 4 4 4 4 5 5 5 5 4 4 4 4 3 3 7 11 2 1 1 1 5 9 8 6 7 6 7 7 9 7 7 7 6 6 6
2 2 2 2 2 2 2 3 3 3 3 3 4 4 4 4 4 5 5 5 5 4 4 3 3 4 6 7 3 2 3 4 7 8 7 5 5 6 7 7 5 6 9 8 8 7 8
2 3 3 3 3 3 3 3 3 3 3 4 4 4 4 5 5 4 5 5 5 4 4 3 3 5 8 3 3 3 4 6 6 6 6 5 4 7 9 8 6 9 10 13 9 8 7
3 3 3 3 3 3 4 3 3 4 4 4 4 4 4 4 4 4 4 5 4 3 3 2 4 6 7 3 6 4 2 5 6 5 5 4 6 9 9 11 12 10 15 13 12 8 8
3 3 3 3 4 3 3 4 4 4 4 4 4 4 4 5 4 5 5 4 3 3 2 2 3 6 4 6 6 4 2 2 5 5 5 7 9 11 12 13 16 13 14 13 12 10 9
3 4 4 4 3 3 4 4 4 4 4 4 4 4 4 4 5 5 5 5 5 6 3 5 5 5 4 3 4 3 3 3 4 6 8 8 12 14 13 11 8 9 11 12 11 9 10
4 4 4 4 4 3 3 4 4 4 4 4 4 5 4 4 4 4 6 6 4 3 7 3 3 4 4 4 5 3 3 6 7 9 7 10 13 11 10 9 8 9 11 13 11 10 10
4 4 4 4 4 3 3 4 4 4 4 4 5 5 5 5 4 6 5 4 2 3 8 5 4 5 5 4 5 5 5 6 7 9 9 11 10 9 10 10 9 10 11 13 13 11 10
4 4 4 4 3 3 3 4 4 4 4 4 4 5 5 5 6 4 4 2 2 2 10 7 7 5 4 4 6 3 4 6 7 9 9 9 8 9 10 11 8 13 9 10 12 13 17
4 3 3 3 3 3 4 4 4 5 5 4 4 4 5 5 6 6 3 2 3 5 17 6 6 3 4 6 5 5 3 5 8 7 9 10 9 10 11 10 7 10 8 10 11 13 14
3 3 3 3 4 4 4 4 5 5 5 4 4 4 4 5 5 4 2 3 4 11 16 8 5 6 7 6 6 5 5 4 5 7 7 8 6 8 8 7 6 6 9 11 11 14 19
3 3 3 3 4 4 4 4 5 5 5 4 4 5 5 3 4 2 3 5 11 14 7 8 8 7 7 8 7 6 7 8 9 12 12 9 9 7 6 9 8 7 10 16 18 18 18
3 3 3 3 4 4 4 4 5 5 5 5 5 5 5 3 2 2 4 8 15 10 10 6 7 7 9 8 8 7 8 9 7 8 11 13 13 9 6 9 10 10 11 14 20 19 16
3 3 3 3 4 3 4 4 5 5 5 5 6 3 3 2 2 3 7 12 12 9 7 7 8 9 10 9 9 8 9 9 8 8 11 12 12 7 6 7 8 10 12 10 14 14 15
3 3 3 3 3 4 4 4 5 5 5 5 5 3 2 2 2 5 8 11 9 6 6 7 11 9 12 10 9 9 9 7 7 7 8 9 12 8 7 7 8 10 9 14 14 17 18
3 3 4 3 3 3 3 4 5 5 5 5 3 5 2 1 2 6 10 9 6 5 5 7 8 9 9 9 10 10 10 8 6 7 7 10 11 10 8 10 11 11 12 12 13 13 16
3 3 3 3 3 3 3 4 5 6 5 4 3 7 2 2 7 6 9 7 7 6 5 6 6 7 8 8 10 10 11 9 5 6 9 8 12 13 11 8 7 9 11 12 14 14 14
3 3 3 3 3 3 3 4 5 6 5 5 5 5 2 3 9 8 7 6 6 7 6 6 7 6 7 8 11 9 8 6 6 6 9 9 11 14 13 10 9 11 9 9 11 13 15
3 3 3 3 3 3 3 3 5 6 5 5 5 8 5 4 4 6 7 7 8 5 6 5 6 6 7 9 8 9 8 6 6 6 5 6 10 13 15 13 11 12 9 9 12 15 13
3 3 3 3 3 3 3 3 5 5 5 4 4 7 5 8 7 6 6 7 7 7 5 5 6 7 7 11 9 9 7 7 6 4 6 9 12 11 11 9 9 9 9 9 11 11 13
4 3 3 3 3 3 3 3 3 5 5 4 6 6 5 6 5 6 8 8 7 6 7 7 7 6 7 10 9 10 9 8 9 7 8 8 12 11 11 9 8 10 9 9 8 9 11
5 5 4 4 4 3 3 3 3 5 5 3 2 2 5 7 6 7 7 7 6 5 5 5 6 6 7 7 7 9 9 9 7 9 9 10 11 12 14 10 10 12 10 9 9 8 10
5 5 5 5 5 4 4 3 3 4 4 4 3 3 6 9 7 7 6 5 6 6 6 5 5 6 6 5 5 7 9 9 7 8 8 10 10 11 13 12 16 12 8 7 8 8 9
5 5 5 5 5 5 4 4 3 3 4 4 4 3 6 9 7 6 5 6 6 6 5 5 5 4 4 5 8 10 10 10 8 7 8 8 10 13 14 15 12 11 9 9 9 11 8
3 4 5 5 4 4 4 4 3 3 4 4 4 3 4 7 7 5 5 5 7 7 6 5 4 4 5 7 9 13 13 11 11 10 7 8 8 11 12 16 17 12 7 6 7 14 7
2 3 4 4 4 3 3 4 3 3 3 3 4 4 3 7 5 4 6 6 5 6 7 6 5 5 5 8 10 12 12 8 14 12 12 11 11 13 13 14 13 9 7 6 13 14 7
2 2 3 3 3 3 3 4 4 3 3 3 4 3 3 6 5 3 3 5 5 5 8 6 7 7 7 10 10 11 11 10 11 10 11 12 13 13 13 15 17 6 7 11 9 7 6
2 2 2 2 3 3 3 4 4 3 3 2 5 0 0 4 4 2 2 2 3 3 5 5 6 6 7 9 9 9 10 9 10 13 8 13 11 12 12 13 8 7 8 6 6 7 6